Asheville, NC

7:42 PM EDT on April 23, 2017 (GMT -0400)
Asheville Regional

Weather History for KAVL - August, 2013

Change the Weather History Date:

Tuesday, August 6, 2013

  Actual Average Record
Temperature  
Mean Temperature 75 °F 74 °F  
Max Temperature 82 °F 84 °F 95 °F (1918)
Min Temperature 68 °F 64 °F 50 °F (1948)
Degree Days  
Heating Degree Days 0 0  
Month to date heating degree days 0 0  
Since 1 June heating degree days 0 14  
Since 1 July heating degree days 0 0  
Cooling Degree Days 10 9  
Month to date cooling degree days 49 54  
Year to date cooling degree days 572 564  
Since 1 June cooling degree days 521 506  
Growing Degree Days 25 (Base 50)    
Moisture  
Dew Point 66 °F    
Average Humidity 74    
Maximum Humidity 93    
Minimum Humidity 54    
Precipitation  
Precipitation T in 0.15 in 2.08 in (1901)
Month to date precipitation 0.57 0.85  
Year to date precipitation 52.35 28.06  
Snow  
Snow 0.00 in 0.00 in 0.00 in ()
Month to date snowfall 0.0 0.0  
Since 1 June snowfall 0.0 0.0  
Since 1 July snowfall 0.0 0.0  
Snow Depth 0.00 in    
Sea Level Pressure  
Sea Level Pressure 30.03 in    
Wind  
Wind Speed 4 mph (East)    
Max Wind Speed 12 mph    
Max Gust Speed 16 mph    
Visibility 10 miles    
Events Rain    
T = Trace of Precipitation, MM = Missing Value Source: NWS Daily Summary

Daily Weather History Graph

Daily Weather History Graph

Search for Another Location

Airport or City:

Trip Planner

Search our weather history database for the weather conditions in past years. The results will help you decide how hot, cold, wet, or windy it might be!

Date:

Astronomy

Aug. 06, 2013 Rise Set
Actual Time 6:42 AM EDT 8:28 PM EDT
Civil Twilight 6:15 AM EDT 8:56 PM EDT
Nautical Twilight 5:41 AM EDT 9:29 PM EDT
Astronomical Twilight 5:06 AM EDT 10:04 PM EDT
Moon 6:30 AM EDT (8/6) 8:06 PM EDT (8/6)
Length of Visible Light 14h 41m
Length of Day
13h 46m
Waning Crescent, 0% of the Moon is Illuminated
Aug 6
Waning Crescent
Aug 6
New
Aug 14
First Quarter
Aug 20
Full
Aug 28
Last Quarter

Hourly Weather History & Observations

Time (EDT) Temp. Heat Index Dew Point Humidity Pressure Visibility Wind Dir Wind Speed Gust Speed Precip Events Conditions
12:17 AM 69.8 °F - 66.2 °F 88% 30.07 in 10.0 mi Calm Calm - N/A   Scattered Clouds
12:54 AM 69.1 °F - 66.0 °F 90% 29.99 in 10.0 mi Variable 3.5 mph - N/A   Mostly Cloudy
1:54 AM 69.1 °F - 64.9 °F 87% 29.99 in 10.0 mi Calm Calm - N/A   Mostly Cloudy
2:02 AM 68.0 °F - 64.4 °F 88% 30.07 in 10.0 mi Calm Calm - N/A   Mostly Cloudy
2:09 AM 68.0 °F - 66.2 °F 94% 30.07 in 10.0 mi Calm Calm - N/A   Mostly Cloudy
2:54 AM 69.1 °F - 64.9 °F 87% 29.98 in 10.0 mi Calm Calm - N/A   Overcast
3:54 AM 68.0 °F - 66.0 °F 93% 29.96 in 10.0 mi Calm Calm - N/A   Overcast
4:54 AM 69.1 °F - 66.0 °F 90% 29.97 in 10.0 mi NW 4.6 mph - 0.00 in Rain Light Rain
5:06 AM 68.0 °F - 66.2 °F 94% 30.05 in 10.0 mi NNW 4.6 mph - 0.00 in Rain Light Rain
5:46 AM 68.0 °F - 64.4 °F 88% 30.05 in 10.0 mi NNW 4.6 mph - 0.00 in   Mostly Cloudy
5:54 AM 68.0 °F - 64.9 °F 90% 29.97 in 10.0 mi NNW 4.6 mph - 0.00 in   Overcast
6:54 AM 68.0 °F - 64.9 °F 90% 29.98 in 10.0 mi North 4.6 mph - N/A   Overcast
7:05 AM 68.0 °F - 64.4 °F 88% 30.06 in 10.0 mi Calm Calm - N/A   Overcast
7:54 AM 69.1 °F - 64.9 °F 87% 30.01 in 9.0 mi North 6.9 mph - N/A   Overcast
8:07 AM 69.8 °F - 64.4 °F 83% 30.09 in 8.0 mi NNW 5.8 mph - N/A   Overcast
8:29 AM 68.0 °F - 64.4 °F 88% 30.09 in 7.0 mi North 5.8 mph - N/A   Overcast
8:54 AM 69.1 °F - 64.9 °F 87% 30.02 in 10.0 mi NNW 8.1 mph - N/A   Overcast
9:54 AM 71.1 °F - 64.9 °F 81% 30.03 in 10.0 mi NW 4.6 mph - N/A   Overcast
10:54 AM 73.9 °F - 64.0 °F 71% 30.04 in 10.0 mi NNW 3.5 mph - N/A   Overcast
11:54 AM 75.9 °F - 63.0 °F 64% 30.03 in 10.0 mi Calm Calm - N/A   Overcast
12:54 PM 77.0 °F - 63.0 °F 62% 30.03 in 10.0 mi Variable 3.5 mph - N/A   Overcast
1:15 PM 77.0 °F - 62.6 °F 61% 30.10 in 10.0 mi Calm Calm - N/A   Overcast
1:54 PM 78.1 °F - 63.0 °F 60% 30.01 in 10.0 mi Calm Calm - N/A   Mostly Cloudy
2:54 PM 81.0 °F 81.9 °F 62.1 °F 52% 30.00 in 10.0 mi Variable 3.5 mph - N/A   Clear
3:54 PM 82.0 °F 83.8 °F 64.9 °F 56% 29.99 in 10.0 mi Variable 3.5 mph - N/A   Partly Cloudy
4:54 PM 80.1 °F 82.3 °F 66.9 °F 64% 29.98 in 10.0 mi SSE 6.9 mph - N/A   Mostly Cloudy
5:54 PM 78.1 °F - 66.9 °F 68% 29.99 in 10.0 mi SSE 8.1 mph - N/A   Mostly Cloudy
6:54 PM 75.9 °F - 68.0 °F 76% 30.01 in 10.0 mi SSE 9.2 mph - N/A   Scattered Clouds
7:35 PM 73.4 °F - 68.0 °F 83% 30.08 in 10.0 mi SSE 9.2 mph - N/A   Mostly Cloudy
7:47 PM 73.4 °F - 68.0 °F 83% 30.08 in 10.0 mi SE 4.6 mph - N/A   Scattered Clouds
7:54 PM 73.9 °F - 68.0 °F 82% 30.01 in 10.0 mi Variable 3.5 mph - N/A   Mostly Cloudy
8:23 PM 73.4 °F - 68.0 °F 83% 30.10 in 10.0 mi SSE 6.9 mph - N/A   Overcast
8:54 PM 72.0 °F - 68.0 °F 87% 30.03 in 10.0 mi SE 8.1 mph - N/A   Overcast
9:24 PM 71.6 °F - 66.2 °F 83% 30.11 in 10.0 mi SE 8.1 mph - N/A   Overcast
9:54 PM 71.1 °F - 66.9 °F 87% 30.05 in 10.0 mi SE 4.6 mph - N/A   Overcast
10:54 PM 71.1 °F - 66.9 °F 87% 30.05 in 10.0 mi ESE 3.5 mph - N/A   Overcast
11:24 PM 71.6 °F - 66.2 °F 83% 30.13 in 10.0 mi SSE 6.9 mph - N/A   Overcast
11:54 PM 71.1 °F - 68.0 °F 90% 30.05 in 10.0 mi SSE 3.5 mph - N/A   Overcast